Miscellaneous Local Product
Issued by NWS Hastings, NE

Home | Current Version | Previous Version | Text Only | Print | Product List | Glossary Off
Versions: 1 2 3 4 5 6 7 8 9 10 11 12 13 14 15 16 17 18 19 20 21 22 23 24 25 26 27 28 29 30 31 32 33 34 35 36 37 38 39 40 41 42 43 44 45 46 47 48 49 50

000
AXUS43 KGID 260702
MISGRI

GID CWA HOURLY WEATHER ROUNDUP
NATIONAL WEATHER SERVICE HASTINGS NE
100 AM CST MON JAN 26 2015

NOTE: "FAIR" INDICATES FEW OR NO CLOUDS BELOW 12,000 FEET WITH NO
SIGNIFICANT WEATHER AND/OR OBSTRUCTIONS TO VISIBILITY.

...SOUTH CENTRAL NEBRASKA...

CITY           SKY/WX    TMP DP  RH WIND       PRES   REMARKS
GRAND ISLAND   CLOUDY    31  27  85 S6        30.04F WCI  25
HASTINGS       CLOUDY    33  26  75 S6        30.03S WCI  28
KEARNEY        PTCLDY    34  27  75 SW8       30.01F WCI  27
ORD            PTCLDY    33  27  78 SE3       29.98F
YORK           CLOUDY    30  28  93 SW6       30.05F WCI  24
AURORA         CLOUDY    32  28  85 SW8       30.03F WCI  25
LEXINGTON      CLEAR     37  25  60 SW5       30.00F WCI  34
HOLDREGE       CLOUDY    38  27  64 SW8       30.02F WCI  32
HEBRON         PTCLDY    24  21  91 CALM      30.09S

...NEBRASKA PANHANDLE...

CITY           SKY/WX    TMP DP  RH WIND       PRES   REMARKS
CHADRON        MOCLDY    46  31  55 W17       30.04S
ALLIANCE       MOCLDY    35  30  82 W12       30.06S WCI  27
SCOTTSBLUFF    MOCLDY    34  30  85 NW6       30.12F WCI  29
SIDNEY         PTCLDY    41  30  65 W16       30.12F

...WESTERN AND NORTH CENTRAL NEBRASKA...

CITY           SKY/WX    TMP DP  RH WIND       PRES   REMARKS
VALENTINE      CLEAR     33  29  85 SW9       29.94F WCI  25
AINSWORTH      PTCLDY    34  29  82 SW6       29.94F WCI  29
ONEILL         MOCLDY    35  32  90 S10       29.95F WCI  27
BROKEN BOW     CLEAR     34  27  75 SW3       29.98F
IMPERIAL       CLEAR     42  30  62 W15       30.06F
NORTH PLATTE   CLEAR     31  27  85 W8        30.01F WCI  23
MCCOOK         CLEAR     35  29  78 W10       30.04F WCI  27

...EASTERN NEBRASKA...

CITY           SKY/WX    TMP DP  RH WIND       PRES   REMARKS
NORFOLK        CLOUDY    34  31  88 S7        29.97F WCI  28
SO SIOUX CITY  CLEAR     31  28  89 S7        29.98F WCI  24
TEKAMAH        CLEAR     29  27  92 S7        30.03F WCI  22
COLUMBUS       CLOUDY    36  28  75 SW7       30.03F WCI  30
ALBION         CLOUDY    35  29  80 SE5       30.01F WCI  30
OMAHA EPPLEY   PTCLDY    28  25  88 SE7       30.05F WCI  21
OFFUTT AFB     PTCLDY    26  24  93 SE3       30.04F
MILLARD        MOCLDY    30  28  94 CALM      30.05F FOG
LINCOLN        CLOUDY    30  27  88 CALM      30.07S
NEBRASKA CITY  MOCLDY    28  26  93 S6        30.07S WCI  22
BEATRICE       CLOUDY    29  27  94 CALM      30.08S
FALLS CITY     CLEAR     28  25  88 SW5       30.08S WCI  23

...NORTHERN KANSAS...

CITY           SKY/WX    TMP DP  RH WIND       PRES   REMARKS
GOODLAND       CLEAR     41  31  67 W17       30.12S
HILL CITY      PTCLDY    33  21  61 W3        30.07F
NORTON         PTSUNNY   34  21  60 SW9       30.04  WCI  26
PHILLIPSBURG   CLOUDY    36  28  75 CALM      30.07F
SMITH CENTER   CLOUDY    30  25  80 S3        30.08S
BELOIT         CLOUDY    27  25  93 CALM      30.09F
HAYS           MOCLDY    28  18  64 S3        30.11S
RUSSELL        CLOUDY    31  26  82 SW13      30.09F WCI  21
CONCORDIA      CLEAR     32  29  88 SW10      30.10R WCI  24
SALINA         PTCLDY    27  24  89 S3        30.12S
TOPEKA         CLEAR     27  25  92 CALM      30.11S



USA.gov is the U.S. government's official web portal to all federal, state and local government web resources and services.